Shreveport, LA

8:56 AM CST on February 19, 2017 (GMT -0600)
Shreveport Regional

Weather History for KSHV - May, 2014

Change the Weather History Date:

Monday, May 5, 2014

  Actual Average Record
Temperature  
Mean Temperature 73 °F 70 °F  
Max Temperature 86 °F 81 °F 93 °F (1952)
Min Temperature 60 °F 60 °F 41 °F (2013)
Degree Days  
Heating Degree Days 0 1  
Month to date heating degree days 9 5  
Since 1 July heating degree days 2552 2224  
Cooling Degree Days 8 6  
Month to date cooling degree days 17 28  
Year to date cooling degree days 138 163  
Growing Degree Days 23 (Base 50)    
Moisture  
Dew Point 52 °F    
Average Humidity 54    
Maximum Humidity 73    
Minimum Humidity 34    
Precipitation  
Precipitation 0.00 in 0.16 in 4.39 in (1941)
Month to date precipitation 0.00 0.82  
Year to date precipitation 11.55 18.10  
Snow  
Snow 0.00 in - - ()
Month to date snowfall 0.0  
Since 1 July snowfall 1.0  
Snow Depth 0.00 in    
Sea Level Pressure  
Sea Level Pressure 29.94 in    
Wind  
Wind Speed 11 mph (SSW)    
Max Wind Speed 20 mph    
Max Gust Speed 26 mph    
Visibility 10 miles    
Events      
T = Trace of Precipitation, MM = Missing Value Source: NWS Daily Summary

Daily Weather History Graph

Daily Weather History Graph

Search for Another Location

Airport or City:

Trip Planner

Search our weather history database for the weather conditions in past years. The results will help you decide how hot, cold, wet, or windy it might be!

Date:

Astronomy

May. 05, 2014 Rise Set
Actual Time 6:24 AM CDT 7:59 PM CDT
Civil Twilight 5:58 AM CDT 8:25 PM CDT
Nautical Twilight 5:26 AM CDT 8:57 PM CDT
Astronomical Twilight 4:53 AM CDT 9:30 PM CDT
Moon 11:44 AM CDT (5/5) 12:44 AM CDT (5/5)
Length of Visible Light 14h 27m
Length of Day
13h 34m
Waxing Crescent, 37% of the Moon is Illuminated
May 5
Waxing Crescent
May 6
First Quarter
May 14
Full
May 21
Last Quarter
May 28
New

Hourly Weather History & Observations

Time (CDT) Temp. Heat Index Dew Point Humidity Pressure Visibility Wind Dir Wind Speed Gust Speed Precip Events Conditions
12:56 AM 69.1 °F - 48.0 °F 47% 30.00 in 10.0 mi South 10.4 mph - N/A   Clear
1:56 AM 66.9 °F - 46.9 °F 49% 30.00 in 10.0 mi SSW 8.1 mph - N/A   Clear
2:56 AM 64.9 °F - 46.0 °F 50% 29.98 in 10.0 mi SSW 8.1 mph - N/A   Clear
3:56 AM 63.0 °F - 45.0 °F 52% 29.97 in 10.0 mi SSW 9.2 mph - N/A   Clear
4:56 AM 62.1 °F - 44.1 °F 52% 29.97 in 10.0 mi SSW 8.1 mph - N/A   Clear
5:56 AM 62.1 °F - 43.0 °F 50% 29.96 in 10.0 mi SSW 11.5 mph - N/A   Clear
6:56 AM 60.1 °F - 45.0 °F 57% 29.99 in 10.0 mi SSW 9.2 mph - N/A   Clear
7:56 AM 62.1 °F - 48.9 °F 62% 30.00 in 10.0 mi SW 9.2 mph - N/A   Clear
8:56 AM 66.9 °F - 55.0 °F 66% 30.01 in 10.0 mi SW 11.5 mph 23.0 mph N/A   Clear
9:56 AM 71.1 °F - 55.9 °F 59% 30.01 in 10.0 mi SW 12.7 mph 23.0 mph N/A   Clear
10:56 AM 75.9 °F - 55.9 °F 50% 30.00 in 10.0 mi WSW 9.2 mph - N/A   Clear
11:56 AM 78.1 °F - 55.0 °F 45% 29.99 in 10.0 mi SSW 12.7 mph 18.4 mph N/A   Clear
12:56 PM 80.1 °F - 52.0 °F 38% 29.97 in 10.0 mi SW 12.7 mph 23.0 mph N/A   Clear
1:56 PM 84.0 °F 82.6 °F 54.0 °F 35% 29.94 in 10.0 mi South 13.8 mph 19.6 mph N/A   Clear
2:56 PM 84.0 °F 82.9 °F 55.0 °F 37% 29.92 in 10.0 mi South 6.9 mph - N/A   Clear
3:56 PM 84.9 °F 83.2 °F 53.1 °F 33% 29.88 in 10.0 mi South 12.7 mph 20.7 mph N/A   Clear
4:56 PM 84.9 °F 84.2 °F 57.9 °F 40% 29.86 in 10.0 mi South 13.8 mph 20.7 mph N/A   Clear
5:56 PM 84.0 °F 83.3 °F 57.0 °F 40% 29.85 in 10.0 mi South 12.7 mph 21.9 mph N/A   Clear
6:56 PM 82.0 °F 81.6 °F 55.9 °F 41% 29.85 in 10.0 mi South 15.0 mph - N/A   Clear
7:56 PM 77.0 °F - 57.0 °F 50% 29.85 in 10.0 mi South 9.2 mph - N/A   Clear
8:56 PM 72.0 °F - 59.0 °F 64% 29.85 in 10.0 mi South 8.1 mph - N/A   Clear
9:56 PM 71.1 °F - 59.0 °F 66% 29.86 in 10.0 mi South 9.2 mph - N/A   Clear
10:56 PM 68.0 °F - 59.0 °F 73% 29.88 in 10.0 mi South 8.1 mph - N/A   Clear
11:56 PM 68.0 °F - 57.2 °F 68% 29.90 in 10.0 mi South 9.2 mph - N/A   Clear